Time,TemperatureF,DewpointF,PressureIn,WindDirection,WindDirectionDegrees,WindSpeedMPH,WindSpeedGustMPH,Humidity,HourlyPrecipIn,Conditions,Clouds,dailyrainin,SoftwareType,DateUTC
2013-04-03 00:00:00,36.3,14.9,30.10,WSW,245,0.0,3.6,41,0.00,,,0.00,VWS V13.01,2013-04-03 04:00:00,
2013-04-03 00:05:00,36.3,14.9,30.10,SW,229,0.0,3.1,41,0.00,,,0.00,VWS V13.01,2013-04-03 04:05:00,
2013-04-03 00:10:00,36.1,14.7,30.10,WSW,258,0.0,3.1,41,0.00,,,0.00,VWS V13.01,2013-04-03 04:10:00,
2013-04-03 00:15:00,36.1,14.7,30.10,WSW,252,2.7,3.1,41,0.00,,,0.00,VWS V13.01,2013-04-03 04:15:00,
2013-04-03 00:20:00,36.1,14.7,30.10,WSW,238,0.0,3.1,41,0.00,,,0.00,VWS V13.01,2013-04-03 04:20:00,
2013-04-03 00:25:00,35.8,14.4,30.10,WSW,238,2.7,3.1,41,0.00,,,0.00,VWS V13.01,2013-04-03 04:25:00,
2013-04-03 00:30:00,35.8,14.4,30.10,South,179,0.0,3.1,41,0.00,,,0.00,VWS V13.01,2013-04-03 04:30:00,
2013-04-03 00:35:00,35.8,13.3,30.10,SW,219,0.0,2.7,39,0.00,,,0.00,VWS V13.01,2013-04-03 04:35:00,
2013-04-03 00:40:00,35.6,14.2,30.10,SW,219,0.0,0.0,41,0.00,,,0.00,VWS V13.01,2013-04-03 04:40:00,
2013-04-03 00:45:00,35.4,14.6,30.10,SW,219,0.0,0.0,42,0.00,,,0.00,VWS V13.01,2013-04-03 04:45:00,
2013-04-03 00:50:00,35.4,12.9,30.10,WSW,258,0.0,3.6,39,0.00,,,0.00,VWS V13.01,2013-04-03 04:50:00,
2013-04-03 00:55:00,35.2,14.5,30.10,SW,230,0.0,2.7,42,0.00,,,0.00,VWS V13.01,2013-04-03 04:55:00,
2013-04-03 01:00:00,35.2,14.5,30.10,SW,230,0.0,0.0,42,0.00,,,0.00,VWS V13.01,2013-04-03 05:00:00,
2013-04-03 01:05:00,35.1,14.3,30.10,SW,230,0.0,0.0,42,0.00,,,0.00,VWS V13.01,2013-04-03 05:05:00,
2013-04-03 01:10:00,35.1,14.3,30.10,SW,230,0.0,0.0,42,0.00,,,0.00,VWS V13.01,2013-04-03 05:10:00,
2013-04-03 01:15:00,34.7,14.0,30.10,SW,231,0.0,0.0,42,0.00,,,0.00,VWS V13.01,2013-04-03 05:15:00,
2013-04-03 01:20:00,34.9,14.1,30.10,SW,230,0.0,0.0,42,0.00,,,0.00,VWS V13.01,2013-04-03 05:20:00,
2013-04-03 01:25:00,34.5,13.8,30.10,SW,230,0.0,0.0,42,0.00,,,0.00,VWS V13.01,2013-04-03 05:25:00,
2013-04-03 01:30:00,34.3,14.7,30.10,SW,230,0.0,0.0,44,0.00,,,0.00,VWS V13.01,2013-04-03 05:30:00,
2013-04-03 01:35:00,34.0,15.9,30.10,SW,230,0.0,0.0,47,0.00,,,0.00,VWS V13.01,2013-04-03 05:35:00,
2013-04-03 01:40:00,33.8,15.7,30.10,SW,230,0.0,0.0,47,0.00,,,0.00,VWS V13.01,2013-04-03 05:40:00,
2013-04-03 01:45:00,33.6,15.6,30.10,SW,231,0.0,0.0,47,0.00,,,0.00,VWS V13.01,2013-04-03 05:45:00,
2013-04-03 01:50:00,33.6,14.6,30.10,SW,230,0.0,0.0,45,0.00,,,0.00,VWS V13.01,2013-04-03 05:50:00,
2013-04-03 01:55:00,33.6,14.6,30.10,SE,145,0.0,5.4,45,0.00,,,0.00,VWS V13.01,2013-04-03 05:55:00,
2013-04-03 02:00:00,34.0,14.4,30.10,SE,145,0.0,0.0,44,0.00,,,0.00,VWS V13.01,2013-04-03 06:00:00,
2013-04-03 02:05:00,34.0,15.9,30.10,SE,145,0.0,0.0,47,0.00,,,0.00,VWS V13.01,2013-04-03 06:05:00,
2013-04-03 02:10:00,33.8,14.2,30.10,SE,145,0.0,0.0,44,0.00,,,0.00,VWS V13.01,2013-04-03 06:10:00,
2013-04-03 02:15:00,33.8,14.2,30.10,SE,145,0.0,0.0,44,0.00,,,0.00,VWS V13.01,2013-04-03 06:15:00,
2013-04-03 02:20:00,33.8,14.2,30.10,SE,145,0.0,0.0,44,0.00,,,0.00,VWS V13.01,2013-04-03 06:20:00,
2013-04-03 02:25:00,33.6,15.6,30.10,SE,135,0.0,2.2,47,0.00,,,0.00,VWS V13.01,2013-04-03 06:25:00,
2013-04-03 02:30:00,33.6,14.6,30.10,SE,135,0.0,0.0,45,0.00,,,0.00,VWS V13.01,2013-04-03 06:30:00,
2013-04-03 02:35:00,33.6,14.6,30.10,SE,135,0.0,0.0,45,0.00,,,0.00,VWS V13.01,2013-04-03 06:35:00,
2013-04-03 02:40:00,33.6,14.6,30.10,SE,135,0.0,0.0,45,0.00,,,0.00,VWS V13.01,2013-04-03 06:40:00,
2013-04-03 02:45:00,33.4,15.4,30.10,SE,135,0.0,0.0,47,0.00,,,0.00,VWS V13.01,2013-04-03 06:45:00,
2013-04-03 02:50:00,33.3,15.2,30.10,SE,135,0.0,0.0,47,0.00,,,0.00,VWS V13.01,2013-04-03 06:50:00,
2013-04-03 02:55:00,33.3,15.2,30.10,SE,135,0.0,0.0,47,0.00,,,0.00,VWS V13.01,2013-04-03 06:55:00,
2013-04-03 03:00:00,33.1,14.1,30.10,SE,135,0.0,0.0,45,0.00,,,0.00,VWS V13.01,2013-04-03 07:00:00,
2013-04-03 03:05:00,33.1,15.1,30.10,SE,135,0.0,0.0,47,0.00,,,0.00,VWS V13.01,2013-04-03 07:05:00,
2013-04-03 03:10:00,33.1,15.1,30.10,SE,135,0.0,0.0,47,0.00,,,0.00,VWS V13.01,2013-04-03 07:10:00,
2013-04-03 03:15:00,33.1,15.1,30.10,ESE,121,2.2,2.7,47,0.00,,,0.00,VWS V13.01,2013-04-03 07:15:00,
2013-04-03 03:20:00,33.3,15.2,30.10,SE,137,0.0,3.1,47,0.00,,,0.00,VWS V13.01,2013-04-03 07:20:00,
2013-04-03 03:25:00,33.3,14.2,30.10,SW,219,0.0,3.6,45,0.00,,,0.00,VWS V13.01,2013-04-03 07:25:00,
2013-04-03 03:30:00,33.3,15.2,30.10,NNW,334,2.2,2.2,47,0.00,,,0.00,VWS V13.01,2013-04-03 07:30:00,
2013-04-03 03:35:00,33.3,15.2,30.10,WSW,254,0.0,0.0,47,0.00,,,0.00,VWS V13.01,2013-04-03 07:35:00,
2013-04-03 03:40:00,33.3,15.2,30.10,WSW,254,0.0,0.0,47,0.00,,,0.00,VWS V13.01,2013-04-03 07:40:00,
2013-04-03 03:45:00,33.3,15.2,30.10,WSW,254,0.0,0.0,47,0.00,,,0.00,VWS V13.01,2013-04-03 07:45:00,
2013-04-03 03:50:00,33.3,15.2,30.10,WSW,251,0.0,0.0,47,0.00,,,0.00,VWS V13.01,2013-04-03 07:50:00,
2013-04-03 03:55:00,33.1,15.1,30.10,SW,230,0.0,0.0,47,0.00,,,0.00,VWS V13.01,2013-04-03 07:55:00,
2013-04-03 03:59:00,33.1,15.1,30.10,SW,230,0.0,0.0,47,0.00,,,0.00,VWS V13.01,2013-04-03 07:59:00,
2013-04-03 04:04:00,32.9,14.9,30.10,SW,230,0.0,0.0,47,0.00,,,0.00,VWS V13.01,2013-04-03 08:04:00,
2013-04-03 04:09:00,32.7,14.7,30.10,SW,230,0.0,0.0,47,0.00,,,0.00,VWS V13.01,2013-04-03 08:09:00,
2013-04-03 04:14:00,32.7,14.7,30.10,SW,230,0.0,0.0,47,0.00,,,0.00,VWS V13.01,2013-04-03 08:14:00,
2013-04-03 04:19:00,32.7,14.7,30.10,SW,230,0.0,0.0,47,0.00,,,0.00,VWS V13.01,2013-04-03 08:19:00,
2013-04-03 04:24:00,32.5,14.6,30.10,SW,230,0.0,0.0,47,0.00,,,0.00,VWS V13.01,2013-04-03 08:24:00,
2013-04-03 04:29:00,32.5,15.0,30.10,SW,230,0.0,0.0,48,0.00,,,0.00,VWS V13.01,2013-04-03 08:29:00,
2013-04-03 04:34:00,32.2,14.2,30.10,SW,230,0.0,4.0,47,0.00,,,0.00,VWS V13.01,2013-04-03 08:34:00,
2013-04-03 04:39:00,32.2,14.7,30.10,SW,229,0.0,0.0,48,0.00,,,0.00,VWS V13.01,2013-04-03 08:39:00,
2013-04-03 04:44:00,32.2,14.7,30.10,SW,230,0.0,0.0,48,0.00,,,0.00,VWS V13.01,2013-04-03 08:44:00,
2013-04-03 04:49:00,32.2,14.2,30.10,SW,229,0.0,0.0,47,0.00,,,0.00,VWS V13.01,2013-04-03 08:49:00,
2013-04-03 04:54:00,32.2,14.2,30.10,SW,230,0.0,0.0,47,0.00,,,0.00,VWS V13.01,2013-04-03 08:54:00,
2013-04-03 04:59:00,32.2,14.2,30.10,SW,229,0.0,0.0,47,0.00,,,0.00,VWS V13.01,2013-04-03 08:59:00,
2013-04-03 05:04:00,32.2,14.2,30.10,South,171,0.0,3.1,47,0.00,,,0.00,VWS V13.01,2013-04-03 09:04:00,
2013-04-03 05:09:00,32.2,14.2,30.10,South,180,0.0,2.2,47,0.00,,,0.00,VWS V13.01,2013-04-03 09:09:00,
2013-04-03 05:14:00,32.4,14.9,30.13,South,180,0.0,0.0,48,0.00,,,0.00,VWS V13.01,2013-04-03 09:14:00,
2013-04-03 05:19:00,32.0,14.6,30.13,SE,146,0.0,3.1,48,0.00,,,0.00,VWS V13.01,2013-04-03 09:19:00,
2013-04-03 05:24:00,32.2,14.2,30.13,South,175,0.0,3.1,47,0.00,,,0.00,VWS V13.01,2013-04-03 09:24:00,
2013-04-03 05:29:00,32.2,14.7,30.13,South,189,0.0,3.6,48,0.00,,,0.00,VWS V13.01,2013-04-03 09:29:00,
2013-04-03 05:34:00,32.2,14.2,30.13,SSW,192,0.0,0.0,47,0.00,,,0.00,VWS V13.01,2013-04-03 09:34:00,
2013-04-03 05:39:00,32.2,14.2,30.13,SSW,192,0.0,0.0,47,0.00,,,0.00,VWS V13.01,2013-04-03 09:39:00,
2013-04-03 05:44:00,32.2,14.7,30.13,SSW,192,0.0,0.0,48,0.00,,,0.00,VWS V13.01,2013-04-03 09:44:00,
2013-04-03 05:49:00,32.0,14.6,30.13,SSW,192,0.0,0.0,48,0.00,,,0.00,VWS V13.01,2013-04-03 09:49:00,
2013-04-03 05:54:00,32.0,14.6,30.13,SSW,192,0.0,0.0,48,0.00,,,0.00,VWS V13.01,2013-04-03 09:54:00,
2013-04-03 05:59:00,31.6,14.2,30.13,South,190,0.0,0.0,48,0.00,,,0.00,VWS V13.01,2013-04-03 09:59:00,
2013-04-03 06:04:00,31.6,14.2,30.13,South,190,0.0,0.0,48,0.00,,,0.00,VWS V13.01,2013-04-03 10:04:00,
2013-04-03 06:09:00,31.6,14.2,30.13,South,178,2.2,2.2,48,0.00,,,0.00,VWS V13.01,2013-04-03 10:09:00,
2013-04-03 06:14:00,31.6,14.2,30.13,South,177,0.0,0.0,48,0.00,,,0.00,VWS V13.01,2013-04-03 10:14:00,
2013-04-03 06:19:00,31.5,14.1,30.13,South,178,0.0,0.0,48,0.00,,,0.00,VWS V13.01,2013-04-03 10:19:00,
2013-04-03 06:24:00,31.3,13.9,30.13,South,177,0.0,2.2,48,0.00,,,0.00,VWS V13.01,2013-04-03 10:24:00,
2013-04-03 06:29:00,31.3,13.9,30.16,SSE,163,0.0,2.2,48,0.00,,,0.00,VWS V13.01,2013-04-03 10:29:00,
2013-04-03 06:34:00,31.5,14.1,30.16,SSW,213,0.0,2.7,48,0.00,,,0.00,VWS V13.01,2013-04-03 10:34:00,
2013-04-03 06:39:00,31.5,14.1,30.16,SSW,213,0.0,0.0,48,0.00,,,0.00,VWS V13.01,2013-04-03 10:39:00,
2013-04-03 06:44:00,31.6,14.7,30.16,SSW,213,0.0,0.0,49,0.00,,,0.00,VWS V13.01,2013-04-03 10:44:00,
2013-04-03 06:49:00,31.5,14.5,30.16,SSW,213,0.0,0.0,49,0.00,,,0.00,VWS V13.01,2013-04-03 10:49:00,
2013-04-03 06:54:00,31.3,14.8,30.16,SSW,213,0.0,0.0,50,0.00,,,0.00,VWS V13.01,2013-04-03 10:54:00,
2013-04-03 06:59:00,31.1,14.2,30.16,SSW,213,0.0,0.0,49,0.00,,,0.00,VWS V13.01,2013-04-03 10:59:00,
2013-04-03 07:04:00,30.9,14.9,30.16,SSW,213,0.0,0.0,51,0.00,,,0.00,VWS V13.01,2013-04-03 11:04:00,
2013-04-03 07:09:00,30.9,14.9,30.16,SSW,213,0.0,0.0,51,0.00,,,0.00,VWS V13.01,2013-04-03 11:09:00,
2013-04-03 07:14:00,30.9,14.5,30.16,SSW,213,0.0,0.0,50,0.00,,,0.00,VWS V13.01,2013-04-03 11:14:00,
2013-04-03 07:19:00,31.1,15.1,30.16,SSW,213,0.0,0.0,51,0.00,,,0.00,VWS V13.01,2013-04-03 11:19:00,
2013-04-03 07:24:00,31.3,15.3,30.16,SSW,213,0.0,0.0,51,0.00,,,0.00,VWS V13.01,2013-04-03 11:24:00,
2013-04-03 07:29:00,31.6,15.1,30.19,SSW,213,0.0,0.0,50,0.00,,,0.00,VWS V13.01,2013-04-03 11:29:00,
2013-04-03 07:34:00,31.8,15.3,30.19,SSW,213,0.0,0.0,50,0.00,,,0.00,VWS V13.01,2013-04-03 11:34:00,
2013-04-03 10:13:00,38.5,19.5,30.16,WSW,252,0.0,0.0,46,0.00,,,0.00,VWS V13.01,2013-04-03 14:13:00,
2013-04-03 10:18:00,38.3,19.4,30.16,SW,223,0.0,4.0,46,0.00,,,0.00,VWS V13.01,2013-04-03 14:18:00,
2013-04-03 10:23:00,38.5,19.5,30.16,SW,228,0.0,5.4,46,0.00,,,0.00,VWS V13.01,2013-04-03 14:23:00,
2013-04-03 10:28:00,39.2,20.2,30.16,SW,234,0.0,3.6,46,0.00,,,0.00,VWS V13.01,2013-04-03 14:28:00,
2013-04-03 10:33:00,38.7,19.7,30.16,WSW,250,3.1,8.3,46,0.00,,,0.00,VWS V13.01,2013-04-03 14:33:00,
2013-04-03 10:38:00,38.8,19.8,30.16,North,358,3.1,6.3,46,0.00,,,0.00,VWS V13.01,2013-04-03 14:38:00,
2013-04-03 10:43:00,39.2,18.6,30.16,SW,226,2.7,5.4,43,0.00,,,0.00,VWS V13.01,2013-04-03 14:43:00,
2013-04-03 10:48:00,39.4,18.8,30.16,SW,221,4.0,5.4,43,0.00,,,0.00,VWS V13.01,2013-04-03 14:48:00,
2013-04-03 10:53:00,39.7,20.1,30.16,SE,137,3.1,4.0,45,0.00,,,0.00,VWS V13.01,2013-04-03 14:53:00,
2013-04-03 10:58:00,39.9,19.2,30.16,NW,314,0.0,2.7,43,0.00,,,0.00,VWS V13.01,2013-04-03 14:58:00,
2013-04-03 11:03:00,40.5,19.7,30.16,SSW,192,4.0,5.4,43,0.00,,,0.00,VWS V13.01,2013-04-03 15:03:00,
2013-04-03 11:08:00,40.5,19.7,30.16,SW,224,0.0,4.0,43,0.00,,,0.00,VWS V13.01,2013-04-03 15:08:00,
2013-04-03 11:13:00,39.9,17.6,30.16,SSE,155,2.7,5.4,40,0.00,,,0.00,VWS V13.01,2013-04-03 15:13:00,
2013-04-03 11:18:00,40.6,19.9,30.16,West,261,3.1,4.0,43,0.00,,,0.00,VWS V13.01,2013-04-03 15:18:00,
2013-04-03 11:23:00,40.8,18.4,30.16,West,268,0.0,4.0,40,0.00,,,0.00,VWS V13.01,2013-04-03 15:23:00,
2013-04-03 11:28:00,41.5,19.0,30.16,WNW,284,0.0,3.6,40,0.00,,,0.00,VWS V13.01,2013-04-03 15:28:00,
2013-04-03 11:33:00,41.9,21.0,30.16,ESE,106,2.2,4.0,43,0.00,,,0.00,VWS V13.01,2013-04-03 15:33:00,
2013-04-03 11:38:00,42.1,19.5,30.16,WSW,250,3.1,4.9,40,0.00,,,0.00,VWS V13.01,2013-04-03 15:38:00,
2013-04-03 11:43:00,41.5,19.0,30.16,SW,236,3.6,4.9,40,0.00,,,0.00,VWS V13.01,2013-04-03 15:43:00,
2013-04-03 11:48:00,41.5,19.0,30.19,SSW,213,2.7,4.9,40,0.00,,,0.00,VWS V13.01,2013-04-03 15:48:00,
2013-04-03 11:52:00,41.5,19.0,30.19,NW,308,0.0,5.4,40,0.00,,,0.00,VWS V13.01,2013-04-03 15:52:00,
2013-04-03 11:57:00,41.9,18.2,30.19,NNW,328,0.0,5.4,38,0.00,,,0.00,VWS V13.01,2013-04-03 15:57:00,
2013-04-03 12:02:00,42.3,19.7,30.19,WSW,248,2.2,4.9,40,0.00,,,0.00,VWS V13.01,2013-04-03 16:02:00,
2013-04-03 12:07:00,42.4,22.6,30.19,WSW,244,0.0,3.1,45,0.00,,,0.00,VWS V13.01,2013-04-03 16:07:00,
2013-04-03 12:12:00,42.8,20.2,30.19,WNW,301,0.0,3.1,40,0.00,,,0.00,VWS V13.01,2013-04-03 16:12:00,
2013-04-03 12:17:00,43.0,20.3,30.16,SW,234,2.7,4.0,40,0.00,,,0.00,VWS V13.01,2013-04-03 16:17:00,
2013-04-03 12:22:00,43.0,20.3,30.16,SSE,151,3.6,3.6,40,0.00,,,0.00,VWS V13.01,2013-04-03 16:22:00,
2013-04-03 12:28:00,43.0,20.3,30.16,SW,218,4.0,6.3,40,0.00,,,0.00,VWS V13.01,2013-04-03 16:28:00,
2013-04-03 12:33:00,42.8,18.4,30.16,SW,220,0.0,5.4,37,0.00,,,0.00,VWS V13.01,2013-04-03 16:33:00,
2013-04-03 12:38:00,43.3,20.6,30.16,ENE,67,2.2,5.4,40,0.00,,,0.00,VWS V13.01,2013-04-03 16:38:00,
2013-04-03 12:43:00,44.1,21.3,30.16,SSW,209,4.0,4.0,40,0.00,,,0.00,VWS V13.01,2013-04-03 16:43:00,
2013-04-03 12:48:00,44.6,20.0,30.16,SW,216,2.7,3.6,37,0.00,,,0.00,VWS V13.01,2013-04-03 16:48:00,
2013-04-03 12:53:00,44.1,19.5,30.16,SW,234,2.2,6.3,37,0.00,,,0.00,VWS V13.01,2013-04-03 16:53:00,
2013-04-03 12:58:00,44.1,19.5,30.16,SSE,162,4.0,4.0,37,0.00,,,0.00,VWS V13.01,2013-04-03 16:58:00,
2013-04-03 13:03:00,44.1,19.5,30.16,SW,219,0.0,3.1,37,0.00,,,0.00,VWS V13.01,2013-04-03 17:03:00,
2013-04-03 13:08:00,45.1,21.7,30.16,WSW,258,3.1,3.6,39,0.00,,,0.00,VWS V13.01,2013-04-03 17:08:00,
2013-04-03 13:13:00,44.8,20.1,30.16,WSW,256,3.6,4.9,37,0.00,,,0.00,VWS V13.01,2013-04-03 17:13:00,
2013-04-03 13:18:00,44.1,19.5,30.16,WSW,251,4.0,4.0,37,0.00,,,0.00,VWS V13.01,2013-04-03 17:18:00,
2013-04-03 13:23:00,43.7,19.1,30.16,NW,307,3.1,4.9,37,0.00,,,0.00,VWS V13.01,2013-04-03 17:23:00,
2013-04-03 13:28:00,44.1,21.3,30.16,SSE,162,3.6,5.8,40,0.00,,,0.00,VWS V13.01,2013-04-03 17:28:00,
2013-04-03 13:33:00,44.8,20.1,30.13,SSW,207,2.7,4.0,37,0.00,,,0.00,VWS V13.01,2013-04-03 17:33:00,
2013-04-03 13:38:00,44.8,20.1,30.13,WSW,238,5.4,5.4,37,0.00,,,0.00,VWS V13.01,2013-04-03 17:38:00,
2013-04-03 13:43:00,45.0,20.3,30.13,WNW,292,2.7,8.1,37,0.00,,,0.00,VWS V13.01,2013-04-03 17:43:00,
2013-04-03 13:48:00,45.1,20.4,30.13,SW,222,0.0,4.0,37,0.00,,,0.00,VWS V13.01,2013-04-03 17:48:00,
2013-04-03 13:53:00,45.3,20.6,30.13,West,277,3.6,7.6,37,0.00,,,0.00,VWS V13.01,2013-04-03 17:53:00,
2013-04-03 13:58:00,45.3,20.6,30.13,NNW,344,2.2,3.1,37,0.00,,,0.00,VWS V13.01,2013-04-03 17:58:00,
2013-04-03 14:03:00,45.3,20.6,30.13,West,275,0.0,6.3,37,0.00,,,0.00,VWS V13.01,2013-04-03 18:03:00,
2013-04-03 14:08:00,45.5,20.8,30.13,SE,136,2.7,4.0,37,0.00,,,0.00,VWS V13.01,2013-04-03 18:08:00,
2013-04-03 14:13:00,45.9,21.1,30.13,SW,216,4.9,4.9,37,0.00,,,0.00,VWS V13.01,2013-04-03 18:13:00,
2013-04-03 14:18:00,46.0,21.2,30.13,SW,223,2.7,3.1,37,0.00,,,0.00,VWS V13.01,2013-04-03 18:18:00,
2013-04-03 14:23:00,46.2,21.4,30.13,SE,146,4.0,4.9,37,0.00,,,0.00,VWS V13.01,2013-04-03 18:23:00,
2013-04-03 14:28:00,46.6,21.1,30.13,WSW,257,0.0,3.6,36,0.00,,,0.00,VWS V13.01,2013-04-03 18:28:00,
2013-04-03 14:33:00,46.8,21.2,30.13,WNW,296,2.7,5.4,36,0.00,,,0.00,VWS V13.01,2013-04-03 18:33:00,
2013-04-03 14:38:00,46.6,21.1,30.13,NNW,337,0.0,2.7,36,0.00,,,0.00,VWS V13.01,2013-04-03 18:38:00,
2013-04-03 14:43:00,46.9,21.4,30.13,WSW,239,3.6,3.6,36,0.00,,,0.00,VWS V13.01,2013-04-03 18:43:00,
2013-04-03 14:48:00,47.1,21.6,30.13,SW,233,2.2,5.8,36,0.00,,,0.00,VWS V13.01,2013-04-03 18:48:00,
2013-04-03 14:53:00,46.6,21.1,30.13,West,263,4.9,5.8,36,0.00,,,0.00,VWS V13.01,2013-04-03 18:53:00,
2013-04-03 14:58:00,46.6,21.1,30.13,SW,227,0.0,5.4,36,0.00,,,0.00,VWS V13.01,2013-04-03 18:58:00,
2013-04-03 15:03:00,47.1,21.6,30.13,SW,230,3.6,5.8,36,0.00,,,0.00,VWS V13.01,2013-04-03 19:03:00,
2013-04-03 15:08:00,47.3,21.7,30.13,ESE,106,0.0,3.6,36,0.00,,,0.00,VWS V13.01,2013-04-03 19:08:00,
2013-04-03 15:13:00,47.8,22.2,30.13,SW,231,2.2,4.9,36,0.00,,,0.00,VWS V13.01,2013-04-03 19:13:00,
2013-04-03 15:18:00,47.8,22.2,30.13,SW,217,3.6,3.6,36,0.00,,,0.00,VWS V13.01,2013-04-03 19:18:00,
2013-04-03 15:23:00,48.0,22.4,30.13,West,266,2.7,5.8,36,0.00,,,0.00,VWS V13.01,2013-04-03 19:23:00,
2013-04-03 15:28:00,48.0,22.4,30.13,West,277,0.0,6.3,36,0.00,,,0.00,VWS V13.01,2013-04-03 19:28:00,
2013-04-03 15:33:00,48.2,22.5,30.10,West,279,2.2,2.7,36,0.00,,,0.00,VWS V13.01,2013-04-03 19:33:00,
2013-04-03 15:38:00,49.1,23.3,30.10,NW,310,4.0,4.9,36,0.00,,,0.00,VWS V13.01,2013-04-03 19:38:00,
2013-04-03 15:43:00,48.9,23.2,30.10,WSW,246,0.0,3.1,36,0.00,,,0.00,VWS V13.01,2013-04-03 19:43:00,
2013-04-03 18:42:00,42.8,17.1,30.19,WNW,296,4.0,4.0,35,0.00,,,0.00,VWS V13.01,2013-04-03 22:42:00,
2013-04-03 18:47:00,42.4,16.7,30.22,SSE,151,3.6,3.6,35,0.00,,,0.00,VWS V13.01,2013-04-03 22:47:00,
2013-04-03 18:52:00,42.3,16.6,30.22,ESE,108,3.1,4.9,35,0.00,,,0.00,VWS V13.01,2013-04-03 22:52:00,
2013-04-03 18:57:00,42.3,16.6,30.22,NW,318,3.1,6.3,35,0.00,,,0.00,VWS V13.01,2013-04-03 22:57:00,
2013-04-03 19:02:00,41.9,16.3,30.22,SW,236,2.7,4.0,35,0.00,,,0.00,VWS V13.01,2013-04-03 23:02:00,
2013-04-03 19:07:00,41.7,16.1,30.22,SW,226,0.0,2.7,35,0.00,,,0.00,VWS V13.01,2013-04-03 23:07:00,
2013-04-03 19:12:00,41.7,16.1,30.22,WSW,258,2.7,4.9,35,0.00,,,0.00,VWS V13.01,2013-04-03 23:12:00,
2013-04-03 19:17:00,41.5,15.9,30.22,SSE,154,2.7,4.0,35,0.00,,,0.00,VWS V13.01,2013-04-03 23:17:00,
2013-04-03 19:22:00,41.2,15.6,30.22,South,183,0.0,6.3,35,0.00,,,0.00,VWS V13.01,2013-04-03 23:22:00,
2013-04-03 19:27:00,41.2,15.6,30.22,SW,221,2.7,3.6,35,0.00,,,0.00,VWS V13.01,2013-04-03 23:27:00,
2013-04-03 19:32:00,41.0,15.5,30.24,NW,320,0.0,3.1,35,0.00,,,0.00,VWS V13.01,2013-04-03 23:32:00,
2013-04-03 19:37:00,40.8,15.3,30.24,NNW,336,3.1,3.6,35,0.00,,,0.00,VWS V13.01,2013-04-03 23:37:00,
2013-04-03 19:42:00,40.6,15.1,30.24,SSW,201,0.0,5.4,35,0.00,,,0.00,VWS V13.01,2013-04-03 23:42:00,
2013-04-03 19:47:00,40.5,15.0,30.24,WNW,283,2.7,3.1,35,0.00,,,0.00,VWS V13.01,2013-04-03 23:47:00,
2013-04-03 19:52:00,40.5,15.0,30.24,WNW,293,2.2,4.5,35,0.00,,,0.00,VWS V13.01,2013-04-03 23:52:00,
2013-04-03 19:57:00,40.3,14.8,30.24,WSW,242,0.0,3.1,35,0.00,,,0.00,VWS V13.01,2013-04-03 23:57:00,
2013-04-03 20:03:00,39.9,14.5,30.24,West,274,2.2,5.4,35,0.00,,,0.00,VWS V13.01,2013-04-04 00:03:00,
2013-04-03 20:08:00,39.9,14.5,30.24,NNE,31,0.0,2.2,35,0.00,,,0.00,VWS V13.01,2013-04-04 00:08:00,
2013-04-03 20:13:00,39.7,14.3,30.24,South,180,0.0,4.0,35,0.00,,,0.00,VWS V13.01,2013-04-04 00:13:00,
2013-04-03 20:18:00,39.7,16.2,30.24,WSW,248,2.7,3.6,38,0.00,,,0.00,VWS V13.01,2013-04-04 00:18:00,
2013-04-03 20:23:00,39.6,14.2,30.24,SW,220,2.7,2.7,35,0.00,,,0.00,VWS V13.01,2013-04-04 00:23:00,
2013-04-03 20:28:00,39.4,14.0,30.24,WSW,256,2.7,2.7,35,0.00,,,0.00,VWS V13.01,2013-04-04 00:28:00,
2013-04-03 20:33:00,39.4,14.0,30.27,WSW,250,2.2,3.6,35,0.00,,,0.00,VWS V13.01,2013-04-04 00:33:00,
2013-04-03 20:38:00,39.2,13.9,30.27,SW,225,0.0,3.1,35,0.00,,,0.00,VWS V13.01,2013-04-04 00:38:00,
2013-04-03 20:43:00,39.2,15.7,30.27,ESE,123,2.2,2.2,38,0.00,,,0.00,VWS V13.01,2013-04-04 00:43:00,
2013-04-03 20:48:00,38.8,14.2,30.27,WSW,254,2.2,2.2,36,0.00,,,0.00,VWS V13.01,2013-04-04 00:48:00,
2013-04-03 20:53:00,38.8,14.2,30.27,WSW,237,2.2,3.6,36,0.00,,,0.00,VWS V13.01,2013-04-04 00:53:00,
2013-04-03 20:58:00,38.7,14.0,30.27,SW,230,2.7,3.1,36,0.00,,,0.00,VWS V13.01,2013-04-04 00:58:00,
2013-04-03 21:03:00,38.7,15.3,30.27,West,280,0.0,2.2,38,0.00,,,0.00,VWS V13.01,2013-04-04 01:03:00,
2013-04-03 21:08:00,38.5,13.9,30.27,West,268,2.2,3.6,36,0.00,,,0.00,VWS V13.01,2013-04-04 01:08:00,
2013-04-03 21:13:00,38.5,13.9,30.27,West,279,2.7,3.1,36,0.00,,,0.00,VWS V13.01,2013-04-04 01:13:00,
2013-04-03 21:18:00,38.3,14.9,30.30,WSW,256,0.0,2.7,38,0.00,,,0.00,VWS V13.01,2013-04-04 01:18:00,
2013-04-03 21:23:00,38.3,14.9,30.30,West,272,0.0,0.0,38,0.00,,,0.00,VWS V13.01,2013-04-04 01:23:00,
2013-04-03 21:27:00,38.1,14.8,30.30,West,273,0.0,2.7,38,0.00,,,0.00,VWS V13.01,2013-04-04 01:27:00,
2013-04-03 21:32:00,38.1,14.8,30.30,West,265,0.0,0.0,38,0.00,,,0.00,VWS V13.01,2013-04-04 01:32:00,
2013-04-03 21:37:00,37.9,14.6,30.30,WSW,237,0.0,3.1,38,0.00,,,0.00,VWS V13.01,2013-04-04 01:37:00,
2013-04-03 21:42:00,37.8,14.4,30.30,WSW,254,0.0,4.9,38,0.00,,,0.00,VWS V13.01,2013-04-04 01:42:00,
2013-04-03 21:47:00,37.6,14.3,30.30,SW,231,0.0,2.7,38,0.00,,,0.00,VWS V13.01,2013-04-04 01:47:00,
2013-04-03 21:52:00,37.6,14.3,30.30,NNW,340,0.0,3.1,38,0.00,,,0.00,VWS V13.01,2013-04-04 01:52:00,
2013-04-03 21:57:00,37.6,14.3,30.30,East,95,2.2,3.1,38,0.00,,,0.00,VWS V13.01,2013-04-04 01:57:00,
2013-04-03 22:02:00,37.6,14.3,30.30,WNW,290,0.0,3.6,38,0.00,,,0.00,VWS V13.01,2013-04-04 02:02:00,
2013-04-03 22:07:00,37.4,14.1,30.30,SW,235,3.1,4.0,38,0.00,,,0.00,VWS V13.01,2013-04-04 02:07:00,
2013-04-03 22:12:00,37.4,14.1,30.30,SW,219,2.2,5.8,38,0.00,,,0.00,VWS V13.01,2013-04-04 02:12:00,
2013-04-03 22:17:00,37.2,14.6,30.30,West,264,0.0,7.2,39,0.00,,,0.00,VWS V13.01,2013-04-04 02:17:00,
2013-04-03 22:22:00,37.2,14.6,30.30,WSW,257,2.7,3.6,39,0.00,,,0.00,VWS V13.01,2013-04-04 02:22:00,
2013-04-03 22:27:00,37.0,14.4,30.30,SW,232,4.0,4.0,39,0.00,,,0.00,VWS V13.01,2013-04-04 02:27:00,
2013-04-03 22:32:00,37.0,14.4,30.30,WSW,255,2.7,3.1,39,0.00,,,0.00,VWS V13.01,2013-04-04 02:32:00,
2013-04-03 22:37:00,36.9,14.2,30.30,SW,221,3.1,3.6,39,0.00,,,0.00,VWS V13.01,2013-04-04 02:37:00,
2013-04-03 22:42:00,36.9,14.2,30.30,SW,222,0.0,4.0,39,0.00,,,0.00,VWS V13.01,2013-04-04 02:42:00,
2013-04-03 22:47:00,36.7,14.1,30.30,West,262,0.0,2.7,39,0.00,,,0.00,VWS V13.01,2013-04-04 02:47:00,
2013-04-03 22:52:00,36.7,14.1,30.30,NNE,15,0.0,4.0,39,0.00,,,0.00,VWS V13.01,2013-04-04 02:52:00,
2013-04-03 22:57:00,36.5,13.9,30.30,WSW,249,2.7,2.7,39,0.00,,,0.00,VWS V13.01,2013-04-04 02:57:00,
2013-04-03 23:02:00,36.3,13.8,30.30,WNW,302,3.1,4.9,39,0.00,,,0.00,VWS V13.01,2013-04-04 03:02:00,
2013-04-03 23:07:00,36.3,13.8,30.30,WSW,246,3.1,5.8,39,0.00,,,0.00,VWS V13.01,2013-04-04 03:07:00,
2013-04-03 23:12:00,36.3,13.8,30.30,SW,236,0.0,3.6,39,0.00,,,0.00,VWS V13.01,2013-04-04 03:12:00,
2013-04-03 23:17:00,36.3,13.8,30.33,WSW,255,2.2,6.3,39,0.00,,,0.00,VWS V13.01,2013-04-04 03:17:00,
2013-04-03 23:22:00,36.3,13.8,30.33,WSW,254,3.6,3.6,39,0.00,,,0.00,VWS V13.01,2013-04-04 03:22:00,
2013-04-03 23:27:00,36.1,14.7,30.33,West,276,0.0,6.3,41,0.00,,,0.00,VWS V13.01,2013-04-04 03:27:00,
2013-04-03 23:32:00,36.0,13.4,30.33,West,280,0.0,4.0,39,0.00,,,0.00,VWS V13.01,2013-04-04 03:32:00,
2013-04-03 23:37:00,35.8,14.4,30.33,WSW,258,2.7,3.1,41,0.00,,,0.00,VWS V13.01,2013-04-04 03:37:00,
2013-04-03 23:42:00,35.8,14.4,30.33,NNW,337,0.0,4.5,41,0.00,,,0.00,VWS V13.01,2013-04-04 03:42:00,
2013-04-03 23:47:00,35.6,14.2,30.30,West,275,2.2,2.7,41,0.00,,,0.00,VWS V13.01,2013-04-04 03:47:00,
2013-04-03 23:52:00,35.6,14.2,30.30,WSW,247,2.2,5.8,41,0.00,,,0.00,VWS V13.01,2013-04-04 03:52:00,
2013-04-03 23:57:00,35.6,15.9,30.30,SW,235,0.0,3.6,44,0.00,,,0.00,VWS V13.01,2013-04-04 03:57:00,